Meteo Giornale » Osservazioni meteo Italia » Paganella

ore: 06:55 - Osservazioni Meteo Paganella
Lat. 46° 9' N Lon. 11° 2' E Alt. 2125 metri s.l.m.

nebbia Europe/Rome

2 °C

Nebbia

Temp. 24 Ore

1 °C

3 °C

Sud/Sud-Ovest

51.8 Km/h

Dew point 2 °C

Umidità 100 %

Visibilità  0 Km

Il sole sorge alle ore 06:47

Il sole tramonta alle ore 17:12

Data e Ora Cielo e Fenomeni T °C DP °C Um. % Pres. hPa Vis. km Vento km/h
Oggi h: 06:55 nebbia Nebbia 2 2 100 1009 0 S/SO 51.8
Oggi h: 05:55 nebbia Nebbia 2 2 100 1009 0 S 51.8
Oggi h: 04:55 nebbia Nebbia 2 2 100 1010 0 S 48.1
Oggi h: 03:55 nebbia Nebbia 2 2 100 1010 0 S 44.4
Oggi h: 01:55 nebbia Nebbia 1 1 100 1013 0 S 29.6
Oggi h: 01:55 nebbia Nebbia 1 1 100 1013 0 S 20.3
Oggi h: 00:55 nebbia Nebbia 1 1 100 1014 0 S 14.8
Ieri h: 22:55 nebbia Nebbia 1 1 100 1014 0.2 S 9.3
Ieri h: 21:55 nebbia Nebbia 2 2 100 1014 0 S 22.2
Ieri h: 20:55 coperto_pioggia Pioggia Debole Nebbia 2 2 100 1014 0 S 20.3
Ieri h: 19:55 nebbia Nebbia 2 2 100 1014 0 S/SO 16.7
Ieri h: 18:55 nebbia Nebbia 2 2 100 1014 0 S/SO 14.8
Ieri h: 17:55 nebbia Nebbia 2 2 100 1014 0 SO 14.8
Ieri h: 16:55 nebbia Nebbia 3 2 93 1015 0 SO 14.8
Ieri h: 15:55 nebbia Nebbia 3 2 93 1015 0 O/SO 14.8
Ieri h: 14:55 nebbia Nebbia 3 2 93 1015 0 O/SO 13
Ieri h: 13:55 nebbia Nebbia 2 1 93 1016 0 O/SO 14.8
Ieri h: 12:55 nebbia Nebbia 2 1 93 1017 0.1 S 9.3
Ieri h: 11:55 nebbia Nebbia 2 0 86 1017 0.3 S/SO 9.3
Ieri h: 10:55 nebbia Nebbia 2 1 93 1017 0.3 S 7.4
Ieri h: 09:55 nebbia Nebbia 1 1 100 1017 0 S/SO 7.4
Ieri h: 08:55 nebbia Nebbia 1 1 100 1017 0 S/SO 7.4